Regional Weather Roundup
Issued by NWS Charleston, SC

Current Version | Previous Version | Graphics & Text | Print | Product List | Glossary On
Versions: 1 2 3 4 5 6 7 8 9 10 11 12 13 14 15 16 17 18 19 20 21 22 23 24 25 26 27 28 29 30 31 32 33 34 35 36 37 38 39 40 41 42 43 44 45 46 47 48 49 50
833
ASUS42 KCHS 271113
RWRCHS

REGIONAL WEATHER ROUNDUP
NATIONAL WEATHER SERVICE CHARLESTON SC
700 AM EDT SAT AUG 27 2016

NOTE: "FAIR" INDICATES FEW OR NO CLOUDS BELOW 12,000 FEET WITH NO
SIGNIFICANT WEATHER AND/OR OBSTRUCTIONS TO VISIBILITY.

NOT ALL STATIONS ARE QUALITY CONTROLLED. USE DATA WITH CAUTION...
ESPECIALLY DEWPOINT OBSERVATIONS.

SCZ027-030-031-034>040-042>050-271200-
...SOUTHEAST SOUTH CAROLINA...

CITY           SKY/WX    TMP DP  RH WIND       PRES   REMARKS
N CHARLESTON   PTCLDY    73  70  90 NE3       30.06S
WATERFRONT PRK   N/A     78  74  87 NE7       30.03R
MOUNT PLEASANT FAIR      72  72 100 CALM      30.07R
JOHNS ISLAND   FAIR      73  73 100 CALM      30.06S
PINOPOLIS        N/A     79  73  83 E7        29.99S
MONCKS CORNER  FAIR      70  70 100 CALM      30.07S
SUMMERVILLE    FAIR      70  70 100 CALM      30.08S
BEAUFORT MCAS  CLEAR     74  72  93 NE3       30.06R
BEAUFORT ARPT  FAIR      75  72  88 N8        30.05R FOG
HILTON HEAD IS PTCLDY    77  73  88 NE7       30.06R
WALTERBORO     SUNNY     72  72 100 CALM      30.08S
ALLENDALE      FAIR      72  70  94 CALM      30.07R

...SOUTHERN MIDLANDS AND PEE DEE...

CITY           SKY/WX    TMP DP  RH WIND       PRES   REMARKS
GEORGETOWN     FAIR      70  68  94 N5        30.08R
KINGSTREE      FAIR      68  66  94 CALM      30.09R
ORANGEBURG     MOCLDY    73  71  93 NE3       30.09R
BARNWELL       NOT AVBL
AIKEN          FAIR      70  68  94 CALM      30.13R
MANNING        FAIR      70  68  94 CALM      30.08S
COLUMBIA       CLEAR     75  71  87 CALM      30.08R
SUMTER         CLEAR     72  70  92 NE3       30.07R
FLORENCE       CLEAR     72  70  93 CALM      30.09S
MYRTLE BEACH   CLEAR     75  64  69 N6        30.10R
N MYRTLE BEACH CLEAR     72  71  97 NE5       30.08R

$$

GAZ063-065-086>088-099>101-113>116-118-119-134>141-150-271200-
...SOUTHEAST GEORGIA...

CITY           SKY/WX    TMP DP  RH WIND       PRES   REMARKS
SAVANNAH ARPT  PTCLDY    70  68  93 N3        30.06R
HUNTER AAF     CLEAR     73  73 100 N5        30.03R
FORT STEWART   PTCLDY    70  67  92 NE2       30.03R
STATESBORO     CLEAR     68  68  99 CALM      30.07R
SYLVANIA       NOT AVBL
CLAXTON        FAIR      64  64 100 CALM      30.06R FOG

...CSRA...CENTRAL AND FAR SOUTHEAST GEORGIA...

CITY           SKY/WX    TMP DP  RH WIND       PRES   REMARKS
THOMSON        CLEAR     73  73 100 MISG      30.13R
AUGUSTA-BUSH   CLEAR     70  69  97 CALM      30.07R
AUGUSTA-DANIEL CLEAR     76  71  85 CALM      30.09R
SWAINSBORO     FAIR      72  70  94 CALM      30.08R
VIDALIA        PTCLDY    70  70 100 CALM      30.07R
EASTMAN        FOG       67  67  99 CALM      30.08R VSB 1/2
HAZLEHURST     FAIR      69  69 100 CALM      30.05S
ALMA           CLEAR     67  66  97 N3        30.04R
WAYCROSS         N/A     70  70 100 CALM      30.04R
JESUP          FAIR      72  72 100 NE3       30.04R
BAXLEY         FAIR      68  68 100 NW5       30.05R
BRUNSWICK      HVY RAIN  73  73 100 CALM      30.04R
SAINT SIMONS   CLOUDY    76  74  93 N3        30.02R

$$

SCZ027-028-034-036>038-045-046-048>050-GAZ119-141-271200-
...LAKE AND SUPPLEMENTAL COASTAL OBSERVATIONS...

STATION/POSITION TIME  TEMP    WIND        PRES    WAVE   SWELL
                       AIR SEA DIR/SP/G            HT/PER HT/PER/DIR
                 (UTC) (F)     (DEG/KT/KT) (MB)    (FT/S) (FT/S/D)
WINYAH BAY       NOT AVBL
LAKE MURRAY      1000   78        CALM     1017.6S
ACE BASIN NERRS  NOT AVBL
FORT PULASKI     1000   79 85  360/  6/  7 1017.4R
SAPELO ISLAND    1000   77      20/  3     1017.0R

$$

ANZ835-935-AMZ111-154-330-350-352-354-370-450-454-472-271200-
...C-MAN AND BUOY OBSERVATIONS...

STATION/POSITION TIME  TEMP    WIND        PRES    WAVE   SWELL
                       AIR SEA DIR/SP/G            HT/PER HT/PER/DIR
                 (UTC) (F)     (DEG/KT/KT) (MB)    (FT/S) (FT/S/D)
BUOY 41004       1050   82 83   50/ 14/ 17 1016.8R   4/10   3/130/10
BUOY 41008       1050   82 85   50/ 16/ 19 1016.0R   4/11   3/110/11
FOLLY BEACH CMAN 1100   79      20/  8/ 10 1018.0R
CAPERS NEARSHORE 1008   81 84   70/ 12/ 16 1017.4R
FRIPP NEARSHORE  1008   82 86   60/ 10/ 12 1016.4S


STATION/POSITION TIME  TEMP    WIND        PRES    WAVE   SWELL
                       AIR SEA DIR/SP/G            HT/PER HT/PER/DIR
                 (UTC) (F)     (DEG/KT/KT) (MB)    (FT/S) (FT/S/D)
5E ST. MARYS GA  1001      84                N/A     4/12   2/120/12
FRYING PAN BUOY  1000   81 85   70/  6/  8 1017.8F
BUOY 41025       1050   82 85  280/  4/  6 1019.2R   3/11   3/130/11
CAPE LOOKOUT NC  1100   80      CALM  /  1 1018.9R
BUOY 41002       1050   82 84   50/ 10/ 12 1017.0R   4/ 9   3/130/ 9
BUOY 41010       NOT AVBL
ST AUGUSTINE FL  1100   81 83   30/ 15/ 17 1016.2R


$$




USA.gov is the U.S. government's official web portal to all federal, state and local government web resources and services.